Dewpoint
20 16 14 14 17 18 16 15 17 29 32 27 29 32 34 34 33 32 31 29 29 29 31 33 35 36 36 37 38 38 38 39 41 40 39 38 38 41 42 41 42 43 45 45
19 14 20 21 19 19 19 19 24 28 29 28 28 28 31 32 31 31 30 28 27 27 28 29 31 31 34 36 38 38 38 38 38 37 37 38 38 38 39 40 43 43 43 45
17 19 22 21 20 19 20 19 25 21 28 27 26 26 28 30 32 31 31 30 29 28 25 25 27 28 30 31 34 34 34 33 33 33 33 34 34 33 33 33 35 38 39 38
20 20 20 21 20 21 17 22 21 23 21 19 25 22 28 29 29 28 30 31 29 24 25 25 27 28 29 28 28 27 28 29 28 28 28 30 30 29 29 29 29 30 33 33
20 20 18 19 19 18 19 22 20 21 21 23 23 18 29 28 26 28 30 30 25 24 26 25 23 23 21 21 23 27 28 27 26 27 28 30 30 30 31 32 33 34 34 35
21 21 20 21 25 18 24 22 23 24 23 21 21 22 30 25 26 28 27 23 23 26 24 22 19 19 21 24 26 28 27 24 27 30 31 34 35 35 35 35 36 36 36 36
20 19 22 26 23 24 24 23 21 22 21 23 27 23 27 27 28 28 24 22 24 25 22 21 21 23 24 24 26 26 26 29 36 37 36 36 37 38 38 38 37 37 36 36
19 18 22 24 24 24 24 21 20 21 14 24 26 23 28 29 30 26 23 24 25 24 23 23 23 24 23 24 26 27 29 33 36 36 37 40 38 37 36 35 36 35 36 36
18 18 28 29 27 26 22 22 23 22 23 20 21 30 31 28 26 25 24 24 26 25 24 22 23 23 23 24 25 28 33 35 35 38 38 37 36 35 35 34 33 33 33 33
24 20 27 28 28 27 29 28 24 22 22 25 22 26 28 27 24 26 25 26 27 26 25 22 21 22 22 23 26 32 36 35 36 37 37 36 35 34 32 32 31 31 32 34
22 21 24 28 24 21 26 25 26 32 33 29 21 31 30 28 28 26 26 28 28 27 24 21 21 21 21 23 27 33 37 35 36 37 37 36 36 34 32 31 31 33 34 35
26 26 19 21 31 30 30 26 34 34 30 31 29 30 29 29 27 26 27 29 28 26 22 20 20 20 20 23 30 34 37 36 37 38 37 35 33 32 30 31 31 31 32 30
30 21 18 18 26 30 26 26 29 35 36 31 28 30 28 26 26 28 28 28 26 22 20 20 20 19 20 26 31 36 36 36 37 37 36 33 30 28 28 28 30 30 33 30
33 24 24 23 28 28 26 29 28 28 29 29 29 27 26 26 27 28 28 27 23 20 19 19 18 18 21 28 32 36 37 37 36 34 32 30 29 28 28 29 28 29 31 29
27 26 28 24 26 26 28 28 27 25 26 28 26 25 25 27 27 28 27 25 22 19 19 18 16 18 22 28 33 36 37 36 35 32 30 29 28 28 29 29 29 29 30 31
29 28 26 27 29 29 29 29 27 26 25 25 26 27 27 27 26 28 26 25 22 19 20 17 16 20 23 29 32 35 38 36 35 31 30 29 28 30 31 29 30 29 31 31
26 27 27 25 27 27 26 33 29 26 26 26 25 28 26 26 28 28 27 24 22 20 20 17 17 22 24 27 33 34 37 37 34 32 30 28 28 30 32 32 29 30 30 30
29 30 29 27 27 21 31 32 28 25 25 27 29 30 31 33 30 31 28 25 22 21 18 17 18 23 24 26 31 32 37 38 36 33 31 31 31 31 34 32 30 29 31 31
29 26 26 25 24 28 28 27 29 25 23 28 28 30 33 32 33 32 28 24 22 20 18 19 20 22 24 25 29 30 31 37 38 35 33 31 33 33 36 33 34 33 30 30
28 28 30 26 19 23 28 28 30 29 23 28 30 32 34 34 24 27 26 22 22 20 20 22 22 23 24 24 26 29 29 33 37 37 36 35 34 34 35 34 35 33 32 30
28 28 28 27 25 28 30 31 30 30 29 29 32 35 34 31 29 28 23 23 24 24 25 26 27 25 26 26 25 25 26 31 36 38 38 36 35 35 35 34 35 34 32 33
27 28 29 28 25 25 32 31 32 30 30 32 33 33 31 29 27 24 24 27 28 29 29 29 30 30 28 29 28 26 24 27 36 38 37 35 35 35 35 35 34 35 35 33
28 32 31 30 31 33 34 32 32 34 33 35 33 29 28 27 26 26 28 31 33 33 33 36 35 33 32 31 30 29 26 25 36 38 37 35 34 35 35 36 33 34 33 32
32 34 32 30 31 32 33 33 35 35 36 31 28 27 28 28 29 29 31 34 36 38 38 37 36 36 36 36 32 31 29 24 34 35 36 37 35 35 34 34 34 34 32 31
33 33 30 29 31 32 33 36 37 35 30 28 29 30 30 30 30 32 36 39 39 38 37 37 37 37 38 38 38 37 32 24 24 35 35 35 36 36 34 35 36 35 34 32
33 32 28 28 34 37 36 36 34 32 32 33 32 32 34 34 35 38 38 36 36 36 36 37 37 38 38 38 39 39 39 30 24 28 35 34 34 35 35 35 35 37 35 34
Wind_Speed
12 14 15 15 10 10 10 4 8 8 3 4 7 12 11 10 9 8 6 3 3 1 1 1 2 4 5 6 7 7 9 8 9 13 14 16 16 14 16 18 18 20 15 19
6 16 5 1 3 6 6 5 6 3 5 6 10 10 10 10 4 2 1 4 2 3 4 4 5 5 5 8 8 10 12 13 14 15 16 16 18 20 20 20 20 20 21 22
15 5 4 5 6 7 4 7 10 7 8 8 10 11 11 7 7 5 5 2 3 4 7 5 5 7 8 9 10 11 14 14 15 17 18 18 18 18 20 20 17 16 15 15
9 4 7 7 7 5 11 3 4 8 11 6 15 1 15 14 14 8 5 3 4 6 6 8 10 11 11 9 10 10 13 15 16 15 16 18 20 22 21 21 21 21 20 20
3 8 10 9 3 4 3 5 6 8 11 3 11 9 7 6 11 9 4 2 4 5 9 10 10 10 11 10 12 14 15 15 15 16 17 17 20 21 21 21 22 20 19 18
3 2 3 1 2 4 7 6 5 6 8 11 11 10 8 11 9 6 3 2 5 8 9 10 10 10 11 12 13 13 14 16 18 18 18 16 16 18 19 20 21 19 15 14
7 9 5 8 7 7 9 11 7 7 9 9 6 6 2 8 6 1 2 4 5 8 10 11 12 13 13 13 13 14 16 17 19 19 15 15 16 16 16 16 16 19 18 18
9 10 14 11 13 7 12 15 6 5 9 8 8 5 4 8 5 3 0 2 6 9 10 11 12 12 13 13 14 15 16 17 17 17 18 16 13 12 15 15 16 17 16 15
6 6 4 2 4 8 10 15 12 12 7 8 5 5 3 6 8 2 3 5 8 11 12 13 13 12 12 12 14 14 17 16 17 16 14 12 10 11 14 16 16 14 16 15
2 8 7 5 4 8 9 4 7 11 3 5 6 8 3 9 7 2 2 7 10 12 13 14 13 13 12 13 14 15 19 16 14 17 13 11 12 13 16 16 17 18 18 17
4 6 5 4 11 12 10 13 8 3 1 2 5 5 3 4 2 2 4 7 10 12 13 14 14 13 13 13 14 16 18 15 14 14 15 14 13 14 15 17 17 17 16 14
2 5 12 9 7 4 9 7 8 3 3 3 6 3 1 3 1 2 6 7 10 11 13 13 14 13 14 14 15 18 16 14 13 12 13 16 15 15 16 16 18 18 18 15
3 5 10 11 10 8 8 10 6 10 4 4 3 4 6 4 3 2 7 9 11 11 13 13 14 14 14 15 16 18 16 14 12 12 11 13 14 15 17 17 17 15 16 15
4 6 7 11 6 8 5 3 9 14 7 6 2 9 9 5 2 5 6 9 11 12 13 14 14 15 15 15 15 17 16 13 14 12 13 13 14 15 16 16 17 17 14 15
4 2 1 6 4 4 6 1 4 5 8 5 10 9 7 2 3 6 7 10 12 13 14 15 15 15 15 15 15 15 15 13 12 12 14 13 14 16 15 16 15 17 14 16
4 2 3 6 12 15 14 10 10 8 9 13 15 6 2 2 4 6 10 12 14 14 15 15 16 16 16 16 14 13 14 13 13 15 16 13 14 15 17 15 15 16 14 15
2 2 1 4 10 15 10 7 4 8 11 9 9 2 3 4 10 9 11 12 14 14 15 16 15 15 15 16 12 14 14 14 13 15 16 16 14 15 14 16 16 15 15 15
7 4 4 5 4 2 2 1 4 10 10 12 9 8 11 13 4 7 10 12 13 14 14 15 15 15 16 16 13 16 13 16 16 18 15 18 17 16 16 14 16 14 15 13
5 2 3 2 10 7 3 4 1 2 4 10 5 7 10 12 3 7 12 12 11 12 12 14 14 14 15 16 14 13 16 15 19 17 17 17 16 16 14 17 16 13 13 15
3 3 3 1 4 2 6 6 1 4 4 7 6 8 11 15 6 15 15 10 10 10 11 15 14 14 16 17 18 16 15 15 16 18 18 19 15 16 14 15 14 15 12 13
4 5 5 3 4 3 4 4 2 3 5 4 5 7 7 7 8 9 9 10 10 11 13 14 14 15 16 17 19 20 20 14 13 15 18 17 15 13 13 14 13 15 15 13
1 1 2 2 3 2 8 5 1 6 5 4 6 7 8 8 8 8 9 11 12 14 14 15 16 16 16 18 19 20 21 17 13 14 15 16 15 12 12 13 15 16 17 13
4 1 2 2 3 6 6 2 3 5 4 5 5 9 9 8 9 9 10 12 13 15 16 19 18 17 18 20 20 21 21 20 12 17 16 15 15 15 12 14 13 13 15 14
5 4 4 5 8 9 6 5 5 6 6 6 9 9 9 8 10 10 11 12 17 18 19 18 18 20 20 22 21 21 21 20 13 17 16 17 16 16 13 12 10 11 12 12
1 9 7 9 11 9 8 5 3 4 6 8 9 10 10 10 11 10 14 17 15 15 15 15 17 17 19 20 22 23 21 20 19 13 17 15 15 16 13 13 8 9 8 8
8 8 8 6 12 7 9 7 5 10 10 9 10 9 11 12 13 16 13 13 13 14 15 15 17 17 19 20 21 23 23 21 19 16 15 14 13 14 13 12 14 10 7 10
Wind_Direction
207 230 221 218 218 303 299 265 187 112 47 146 153 158 164 160 168 176 162 115 84 38 127 247 303 292 320 314 317 307 304 301 277 275 280 279 280 263 245 256 257 264 265 263
199 234 68 291 241 253 262 238 137 117 176 247 167 162 159 185 168 151 213 163 64 341 342 354 350 327 303 294 280 285 283 285 291 290 292 296 295 291 293 296 296 295 291 287
239 97 142 208 207 222 221 248 164 274 174 240 190 182 181 176 187 182 197 329 246 356 350 349 340 322 319 318 322 319 316 312 309 311 300 297 296 289 283 281 276 274 286 298
256 135 193 206 228 283 256 177 228 173 195 236 204 148 193 172 198 198 173 233 348 2 347 339 342 345 338 330 333 320 321 315 307 313 301 298 298 292 290 292 290 298 295 296
153 187 204 216 234 244 32 144 192 198 229 265 199 256 120 157 221 169 158 7 8 347 355 352 346 335 317 342 353 336 327 316 317 315 310 303 299 300 304 305 305 302 297 289
101 58 231 292 185 241 143 160 168 213 235 241 231 228 190 188 165 142 125 16 2 4 345 348 345 344 346 343 345 334 325 327 328 322 316 323 317 305 299 303 304 298 300 300
189 190 145 169 144 157 183 179 201 224 207 232 94 230 115 102 112 58 60 355 4 355 3 345 352 347 345 345 344 338 335 329 341 337 328 322 318 326 323 315 314 315 309 307
206 211 186 187 235 216 219 214 225 238 243 196 155 237 105 113 117 129 214 20 357 1 360 354 354 350 347 349 343 339 332 337 339 347 341 346 355 332 324 327 314 307 305 308
302 244 116 228 228 250 207 231 264 278 259 279 160 101 200 184 148 165 44 341 359 356 357 355 353 358 347 352 344 343 334 339 346 341 329 322 339 328 320 313 312 307 306 293
296 271 180 149 233 227 263 311 221 229 219 238 216 178 156 185 165 106 352 351 352 355 357 356 353 355 348 349 344 348 352 344 342 338 326 321 322 322 322 318 307 297 296 298
279 240 176 176 213 218 196 235 244 102 81 250 234 117 75 131 92 333 344 351 352 356 358 354 352 354 348 348 348 355 353 343 346 338 328 324 322 311 325 313 303 304 301 297
85 286 259 241 76 337 295 258 162 198 214 241 277 144 175 157 123 322 321 358 352 1 1 354 352 350 350 350 349 357 349 351 348 325 322 324 333 330 325 320 321 325 311 315
28 251 271 239 197 201 237 209 232 133 160 203 241 138 159 156 206 290 351 0 354 1 359 357 352 350 349 350 358 354 353 350 339 328 328 324 326 339 334 335 322 326 309 316
296 277 289 302 347 312 217 237 233 214 218 204 195 140 161 162 314 358 8 358 357 1 358 356 351 350 349 351 358 349 351 346 338 336 330 325 345 341 344 332 333 330 329 323
288 305 311 291 311 4 54 5 231 191 245 177 156 119 93 60 330 16 16 356 355 359 356 354 352 349 348 349 356 350 346 345 340 332 320 335 343 346 344 334 334 325 329 313
10 210 129 73 99 101 91 69 100 109 121 125 102 74 9 20 11 30 9 358 355 356 353 351 350 349 349 348 3 348 341 342 331 330 328 333 343 349 334 340 327 324 326 313
25 139 192 141 157 140 77 10 63 86 61 107 95 171 335 11 11 41 3 0 354 354 352 351 347 348 348 351 12 353 336 332 333 330 334 335 340 341 329 331 332 327 321 316
74 105 120 142 222 66 120 72 89 79 59 62 69 31 1 351 344 56 15 5 357 354 351 347 347 348 351 352 6 358 341 337 327 331 345 338 346 339 335 332 331 334 320 328
26 85 74 85 74 121 139 175 56 70 89 78 46 22 356 322 29 68 22 17 357 351 347 345 350 351 352 354 354 353 360 338 333 337 338 336 338 338 343 335 326 327 329 323
91 15 119 355 105 115 147 114 21 303 152 57 3 8 342 337 350 19 7 8 353 351 355 352 353 356 358 354 350 346 357 4 337 331 328 328 347 346 343 332 327 329 327 319
81 101 87 94 94 139 182 127 264 280 72 69 345 339 336 36 14 350 356 2 2 360 5 353 360 2 2 356 355 353 356 4 355 332 330 330 351 343 345 335 338 330 328 336
190 247 131 259 109 178 166 180 341 53 102 355 9 344 25 16 8 3 9 7 7 3 5 2 0 2 5 358 358 357 360 12 14 350 341 340 347 342 350 340 352 350 345 350
185 285 149 2 64 109 126 133 104 41 358 21 357 22 14 20 14 15 11 11 6 10 7 4 0 1 8 1 1 357 358 358 22 5 349 347 341 354 357 349 353 354 357 359
160 158 163 154 137 145 144 131 67 1 346 16 32 29 28 25 18 14 15 10 12 15 10 359 360 7 2 358 359 357 353 354 27 18 356 347 347 348 2 2 1 13 7 5
177 170 164 127 142 127 113 48 7 120 76 53 49 36 25 18 28 6 28 20 8 8 7 11 11 5 0 356 359 355 349 357 5 22 6 356 348 346 351 2 357 14 16 16
181 183 175 140 116 88 95 93 67 70 52 38 36 49 43 24 26 30 27 22 16 16 16 13 11 7 360 357 356 352 343 354 3 15 14 359 351 351 349 359 358 11 16 34